Regional Weather Roundup
Issued by NWS

Home | Current Version | Previous Version | Text Only | Print | Product List | Glossary Off
Versions: 1 2 3 4 5 6 7 8 9 10 11 12 13 14 15 16 17 18 19 20 21 22 23 24 25 26 27 28 29 30 31 32 33 34 35 36 37 38 39 40 41 42 43 44 45 46 47 48 49 50

000
ASUS43 KFSD 290410
RWRSD

WEATHER ROUNDUP FOR SOUTH DAKOTA
NATIONAL WEATHER SERVICE SIOUX FALLS SD
1100 PM CDT MON JUL 28 2014

NOTE: "FAIR" INDICATES FEW OR NO CLOUDS BELOW 12,000 FEET WITH NO
SIGNIFICANT WEATHER AND/OR OBSTRUCTIONS TO VISIBILITY.


SDZ001>005-009-010-012>017-290500-
NORTHWEST AND NORTH CENTRAL SOUTH DAKOTA

CITY           SKY/WX    TMP DP  RH WIND       PRES   REMARKS
BUFFALO          N/A     65  53  65 E12       30.21R
FAITH            N/A     64  53  67 SE8       30.26R
MOBRIDGE       CLEAR     64  50  60 E9        30.22S
$$

SDZ012>016-024>037-041>051-057-063-072>074-290500-
SOUTHWEST AND SOUTH CENTRAL SOUTH DAKOTA

CITY           SKY/WX    TMP DP  RH WIND       PRES   REMARKS
RAPID CTY ARPT CLEAR     66  51  58 E13       30.26R
PIERRE         CLEAR     62  53  72 E8        30.22R
CUSTER         CLEAR     61  49  64 E8        30.38R
ELLSWORTH AFB  CLEAR     67  52  59 E10       30.27R
PHILIP         CLEAR     62  49  62 E5        30.24R
PINE RIDGE     CLEAR     65  56  72 E9        30.25R
WINNER         FAIR      64  50  60 SE7       30.23R
$$

SDZ004>011-016>023-039-040-290500-
NORTHEAST SOUTH DAKOTA

CITY           SKY/WX    TMP DP  RH WIND       PRES   REMARKS
ABERDEEN       CLEAR     54  52  93 CALM      30.23R
WATERTOWN      CLEAR     59  51  75 CALM      30.23R
SISSETON         N/A     57  54  89 NW3       30.20S
$$

SDZ017-020-022-023-036>040-048>070-290500-
SOUTHEAST SOUTH DAKOTA

CITY           SKY/WX    TMP DP  RH WIND       PRES   REMARKS
SIOUX FALLS    CLEAR     59  53  80 CALM      30.23R
HURON          CLEAR     58  53  84 E3        30.22S
CHAMBERLAIN    CLEAR     61  53  74 CALM      30.23S
MITCHELL       CLEAR     61  54  77 NE6       30.23R
YANKTON        CLEAR     61  54  77 N6        30.22S
$$

ABBREVIATIONS USED IN REMARKS
   TC - TEMPERATURE IN CELSIUS
  WCI - WIND CHILL INDEX
   HX - HEAT INDEX
  VSB - VISIBILITY



USA.gov is the U.S. government's official web portal to all federal, state and local government web resources and services.